Wetbulb
77.40 76.28 74.68 71.10 62.65 60.33 51.73 54.38 59.20 60.80 61.80 64.87 65.39 62.62 60.97 63.09 62.22 56.99 72.25 73.76 74.95 75.11 76.81 77.88 79.46 79.97 79.79 79.60 79.40 78.94 78.42 77.92 77.72 78.03 77.59 77.38 77.15 76.43 75.81 75.86 76.53 76.56 76.94 76.70 76.74 76.58 76.58 76.86 76.18
75.45 74.32 71.88 68.02 59.66 48.40 50.52 57.42 57.60 63.16 65.94 67.57 66.81 65.05 64.31 62.50 68.77 69.20 69.48 73.95 75.17 75.19 75.61 77.37 79.12 79.43 79.68 79.45 79.30 79.15 78.61 77.59 77.67 77.88 77.84 77.42 77.47 77.14 76.74 76.02 74.59 75.57 76.05 76.47 76.27 76.63 76.41 76.16 75.99
74.55 74.46 68.55 63.78 55.16 48.79 51.07 57.68 60.09 64.55 67.17 67.42 65.92 68.90 67.28 65.28 69.52 69.77 72.73 73.96 74.46 74.68 76.39 77.20 79.37 79.46 79.23 79.33 79.27 79.07 78.73 78.25 77.98 77.52 77.16 77.11 77.14 77.26 76.73 76.41 75.19 74.78 74.40 75.84 76.25 76.19 75.92 75.39 76.07
73.62 73.78 70.31 61.46 52.07 55.05 57.13 59.43 61.93 63.51 65.76 67.49 67.28 65.00 68.89 70.93 70.49 71.92 73.77 73.74 74.23 75.52 77.05 78.81 79.33 78.68 78.73 79.35 79.23 79.09 78.91 78.54 78.15 77.29 77.18 76.93 77.02 77.05 76.95 76.51 76.42 76.36 75.31 75.06 75.70 76.30 75.79 76.08 76.09
66.31 67.16 56.08 54.60 54.26 57.15 59.74 62.37 63.09 62.43 64.70 65.92 67.96 64.82 66.60 70.65 73.21 74.55 74.31 74.75 73.85 74.57 76.60 77.42 79.16 79.08 78.95 79.23 79.02 78.66 78.63 78.47 78.09 77.27 77.07 76.96 76.88 77.02 77.26 76.89 76.56 76.44 76.29 75.53 75.53 75.54 76.17 76.24 76.19
63.19 62.30 55.65 53.34 56.01 58.82 60.08 60.76 63.49 63.90 65.97 66.70 66.45 65.44 65.47 70.91 71.30 74.06 74.74 73.47 73.96 74.24 75.88 76.49 78.44 78.75 78.69 78.20 78.04 77.94 77.57 77.39 77.46 77.19 77.01 76.68 76.68 77.03 77.20 76.96 76.66 76.53 76.41 76.72 75.30 75.48 76.11 76.30 76.50
61.03 59.23 56.57 56.02 55.37 57.68 58.18 62.29 61.28 62.17 64.32 65.39 68.47 63.65 66.06 68.92 71.64 74.01 74.92 74.24 73.80 74.62 75.00 75.75 76.18 76.81 77.84 77.84 77.76 77.74 77.64 77.60 77.96 78.00 77.99 77.12 76.37 76.00 76.06 76.91 76.95 76.03 75.94 76.19 76.54 75.50 75.70 76.24 76.58
64.18 59.00 56.39 56.91 55.25 55.23 59.12 61.38 63.07 62.78 63.33 69.80 69.37 63.44 63.92 68.97 72.23 73.16 73.84 74.02 73.83 74.48 74.29 74.54 75.27 75.34 75.11 75.70 77.94 78.17 78.09 77.23 77.19 77.36 77.49 77.06 76.88 76.52 76.47 77.42 77.31 75.83 75.75 75.48 75.65 76.24 76.44 76.13 77.17
66.21 57.33 53.72 56.96 56.05 58.90 60.45 60.52 63.39 65.37 66.14 67.73 68.75 68.84 69.99 71.62 72.12 71.80 72.26 72.40 72.70 74.18 74.12 74.29 74.66 74.57 74.54 75.19 76.84 78.30 77.68 77.54 77.45 76.78 77.02 76.57 74.47 74.25 75.30 76.20 76.56 76.03 75.81 75.73 75.68 76.30 76.93 76.39 75.06
58.72 54.96 56.49 60.06 61.02 59.86 62.57 62.42 63.02 62.82 64.73 66.52 67.86 70.07 71.18 71.43 70.38 69.85 69.23 69.15 70.30 71.94 73.30 74.29 74.49 74.94 74.71 76.54 75.48 75.29 75.60 74.72 75.15 74.97 74.61 74.18 73.64 73.42 74.63 75.67 77.17 76.72 76.28 76.11 76.13 76.86 76.24 76.05 73.18
59.43 54.44 59.17 61.14 63.06 62.53 61.42 62.12 63.28 62.18 62.10 65.46 65.50 67.81 69.96 69.88 69.37 69.23 68.99 69.56 71.16 72.61 73.65 73.82 74.51 74.73 74.36 73.78 74.90 74.30 74.68 74.18 74.35 73.81 74.40 74.39 74.41 72.41 72.75 73.28 73.87 73.63 75.65 73.58 75.04 73.86 74.19 73.54 72.65
58.60 61.74 61.57 61.18 63.00 62.24 60.89 62.43 61.17 63.06 63.76 68.52 68.62 69.74 69.92 69.04 68.68 68.83 69.26 69.91 69.67 72.53 73.27 74.30 74.80 74.50 72.65 68.63 67.21 73.66 73.70 71.70 71.18 72.07 72.39 72.00 72.25 71.89 71.79 71.94 71.64 71.63 71.82 71.72 69.22 67.29 67.30 68.90 71.97
60.31 61.88 63.07 62.14 61.01 63.37 63.90 62.24 61.44 63.37 65.64 69.44 69.88 70.00 69.25 68.99 69.37 69.82 70.66 70.95 70.59 71.41 72.72 73.95 74.62 74.72 72.78 72.54 72.75 71.15 68.75 72.29 70.54 70.33 70.90 69.43 71.62 71.60 71.64 71.28 71.69 71.43 70.73 71.99 69.78 68.11 68.31 68.17 70.26
62.08 61.97 60.29 58.21 59.53 63.01 60.83 61.13 63.71 64.06 67.20 67.60 68.70 68.21 68.83 69.37 69.67 69.47 69.84 69.64 70.68 72.25 72.61 73.46 74.26 74.58 74.27 73.64 71.38 70.96 71.71 72.06 72.40 71.43 69.84 68.60 72.66 72.37 71.51 71.26 69.82 70.09 71.98 70.00 68.67 68.85 68.80 70.72 70.12
59.53 57.26 57.42 56.50 57.97 60.20 61.44 57.63 57.95 63.40 65.66 65.39 66.50 67.71 68.38 69.05 70.04 69.31 70.27 70.04 71.08 72.18 73.63 73.60 74.92 75.08 73.99 73.95 73.53 73.18 72.43 73.08 71.50 71.06 71.50 72.79 73.10 72.15 71.42 70.90 70.20 69.45 70.93 68.20 68.67 67.81 67.88 69.08 70.76
56.13 54.14 49.86 56.49 58.01 61.41 59.94 52.26 59.82 61.80 62.74 62.80 62.91 67.60 68.45 68.21 69.16 70.02 71.77 71.09 72.41 72.75 74.25 74.69 76.10 74.44 74.06 74.10 73.22 72.27 70.85 71.18 70.64 70.14 70.22 70.27 72.62 72.45 71.34 70.66 69.62 70.67 70.40 69.48 68.20 68.17 68.56 69.03 70.15
53.90 48.05 52.17 55.36 60.19 58.68 58.87 55.17 60.14 61.77 63.23 62.96 63.43 64.82 67.53 67.84 68.44 70.50 72.72 72.58 72.98 73.22 74.64 74.65 74.32 73.59 73.67 73.23 72.92 71.61 70.46 71.01 70.09 69.17 68.91 69.23 72.09 72.52 71.53 70.93 70.50 70.13 67.48 69.60 69.73 69.08 70.14 70.04 69.05
49.63 50.14 52.78 53.20 57.37 58.24 55.49 55.49 59.84 61.27 61.65 62.60 63.75 64.52 67.21 68.04 68.73 70.77 71.77 73.40 74.09 74.64 75.56 74.69 74.22 73.48 73.28 73.02 72.64 71.42 69.03 69.37 70.22 70.04 70.19 70.95 70.35 71.99 70.89 70.54 70.16 71.10 68.49 67.74 68.40 69.28 69.76 68.13 67.39
55.18 53.93 53.05 56.16 58.25 55.85 54.59 54.42 58.77 60.30 61.49 60.17 61.88 62.93 64.50 67.34 70.13 71.27 72.17 74.01 74.43 75.53 75.40 74.63 74.04 73.69 72.54 72.09 71.08 69.48 66.53 66.10 67.10 67.78 70.46 70.49 71.00 71.43 71.53 71.50 71.11 71.09 71.20 71.40 70.60 69.68 67.59 67.95 69.12
55.57 53.45 53.33 55.82 58.38 55.25 54.68 53.16 57.13 60.06 60.96 61.86 58.96 59.88 60.56 60.77 68.95 70.22 71.26 73.27 73.96 74.95 75.19 75.36 74.00 73.20 73.06 72.75 72.55 70.82 68.06 67.52 67.00 67.43 69.00 70.48 70.66 72.36 71.60 71.60 70.87 70.75 70.88 70.24 69.02 68.77 67.34 67.59 68.31
50.99 52.30 53.16 53.17 57.13 56.32 52.89 49.42 54.26 57.33 59.45 62.95 62.43 62.13 61.65 61.22 68.13 69.57 71.15 72.10 74.10 74.63 75.80 75.24 73.51 72.71 73.40 73.09 71.29 69.97 69.63 68.87 68.28 69.62 71.13 72.57 73.85 73.53 72.59 71.72 70.81 71.26 70.64 69.59 69.15 69.19 67.95 65.88 66.80
45.42 54.45 55.00 53.25 51.59 46.67 51.22 42.24 51.24 54.08 55.13 59.62 63.59 62.23 61.35 62.99 69.60 70.24 71.15 71.14 73.55 75.18 76.73 75.30 74.05 73.86 73.69 72.04 70.44 68.00 66.54 66.47 68.64 70.23 71.58 71.83 72.78 72.21 72.78 71.31 71.09 70.22 70.17 69.07 69.18 70.06 68.26 67.68 66.06
48.82 53.24 52.27 51.93 48.86 49.92 47.67 44.11 48.92 54.00 53.62 54.77 57.21 59.85 65.75 68.36 70.18 70.56 71.62 72.73 73.61 76.00 76.38 75.32 74.20 73.99 73.76 71.76 71.42 69.92 67.98 68.82 70.72 70.99 70.83 70.48 71.16 71.63 71.23 70.96 70.12 69.65 69.53 69.64 69.70 69.46 68.76 68.18 67.45
52.89 50.28 50.20 49.12 44.92 39.86 45.44 44.71 46.25 49.76 52.96 55.82 57.40 59.22 67.88 69.81 71.07 71.81 72.90 73.34 73.18 76.29 76.13 74.53 73.26 73.29 72.09 70.45 71.31 69.23 68.68 69.68 69.85 69.24 69.27 69.85 70.04 70.23 71.18 71.16 69.56 68.85 69.01 69.32 68.40 69.43 69.18 69.10 68.65
49.00 46.63 39.08 39.38 39.55 38.63 47.05 47.10 46.68 54.74 56.83 57.80 60.42 64.19 67.83 70.47 70.80 71.18 71.79 72.28 73.27 74.62 75.47 73.62 72.89 72.16 72.35 71.23 70.80 70.91 71.50 69.99 68.86 68.94 69.00 68.27 69.09 68.63 69.07 69.15 68.60 69.11 69.11 69.71 69.64 68.31 68.38 68.67 67.99
46.46 44.17 40.34 36.74 38.47 42.04 49.07 44.67 49.97 58.94 60.06 59.48 61.41 63.01 66.15 68.74 60.38 60.87 68.79 73.08 73.77 74.38 74.45 73.69 71.67 72.37 71.90 71.14 70.96 70.87 70.08 69.28 69.28 69.12 68.98 68.24 68.29 68.26 68.70 68.52 69.07 68.51 67.75 68.85 68.68 68.29 68.85 68.18 67.37
46.43 43.94 47.90 41.61 40.66 41.56 44.98 49.87 53.73 57.83 57.11 59.87 57.71 63.50 65.13 68.74 62.43 61.49 72.05 73.43 73.52 73.01 73.90 73.06 71.59 71.70 71.93 71.43 70.81 68.76 68.22 67.57 65.91 67.63 69.50 68.80 68.55 68.32 67.96 68.33 68.77 68.83 67.31 68.17 68.03 67.77 67.84 68.38 67.68
47.61 51.52 44.12 42.41 36.88 36.50 44.92 45.82 48.30 53.92 56.69 61.00 60.30 64.73 65.40 67.16 70.65 72.24 73.21 73.26 72.82 73.70 73.88 73.99 73.30 71.44 70.99 69.09 67.43 67.03 67.61 67.28 65.97 64.93 67.81 67.95 67.49 67.19 67.03 68.38 68.43 68.44 68.16 67.60 66.98 67.47 67.91 67.32 67.59
46.73 44.64 47.61 46.64 43.96 38.83 39.13 43.41 52.63 54.75 55.43 59.03 61.80 62.82 65.26 67.07 69.66 70.99 72.85 73.13 73.32 73.73 73.35 72.42 72.28 69.38 67.86 67.32 67.21 67.23 67.43 67.84 67.95 67.34 68.34 67.91 67.19 66.67 67.51 67.64 67.92 67.16 65.64 65.88 65.77 66.32 66.55 66.20 65.00
50.22 47.61 46.77 42.52 41.71 44.76 43.10 43.34 56.49 55.71 55.88 56.93 60.52 60.55 66.31 67.42 68.46 70.13 71.76 72.47 72.42 71.28 72.30 71.14 70.30 69.11 66.60 66.11 64.70 63.98 64.73 66.89 67.31 67.43 67.25 67.51 66.39 67.08 66.76 67.16 65.93 65.56 65.73 64.63 63.64 63.68 64.21 63.22 62.61
MSLP
1010.64 1011.46 1011.67 1011.76 1011.32 1009.28 1007.08 1005.83 1004.94 1005.19 1006.26 1006.82 1006.81 1007.84 1009.12 1009.35 1009.74 1011.52 1011.83 1012.28 1012.67 1013.49 1013.74 1013.90 1013.99 1014.08 1014.30 1014.50 1014.61 1014.79 1014.96 1015.10 1015.35 1015.54 1015.65 1015.89 1016.18 1016.34 1016.41 1016.47 1016.59 1016.61 1016.78 1016.92 1016.91 1017.03 1017.14 1017.26 1017.45
1010.62 1011.41 1011.32 1010.52 1009.90 1007.63 1006.51 1005.26 1004.91 1005.61 1006.32 1006.64 1007.09 1007.69 1008.30 1009.09 1009.23 1010.70 1011.69 1012.03 1012.41 1013.28 1013.76 1013.97 1014.05 1014.17 1014.34 1014.56 1014.70 1014.88 1015.03 1015.25 1015.44 1015.61 1015.80 1015.90 1016.17 1016.22 1016.36 1016.52 1016.75 1016.78 1016.84 1017.04 1017.20 1017.18 1017.30 1017.51 1017.57
1010.75 1010.36 1011.16 1009.62 1007.53 1006.48 1005.73 1004.92 1004.55 1005.07 1005.66 1006.28 1007.06 1007.19 1007.95 1008.66 1009.05 1010.03 1010.90 1011.65 1012.11 1013.09 1013.77 1014.02 1014.13 1014.23 1014.41 1014.59 1014.83 1014.99 1015.19 1015.38 1015.48 1015.67 1015.85 1015.94 1016.22 1016.33 1016.41 1016.52 1016.77 1016.98 1017.09 1017.22 1017.33 1017.38 1017.53 1017.71 1017.73
1010.36 1010.52 1009.85 1008.93 1006.45 1005.08 1004.54 1004.53 1004.72 1005.18 1005.85 1006.43 1006.89 1007.81 1008.39 1008.50 1009.00 1010.03 1010.84 1011.65 1012.55 1013.32 1013.70 1013.87 1014.02 1014.29 1014.52 1014.73 1014.92 1015.15 1015.32 1015.50 1015.65 1015.79 1015.91 1016.05 1016.22 1016.43 1016.58 1016.65 1016.75 1016.99 1017.19 1017.36 1017.41 1017.63 1017.73 1017.79 1017.91
1010.77 1010.86 1009.88 1008.43 1006.00 1004.56 1003.77 1003.80 1004.27 1005.00 1005.85 1006.70 1007.40 1008.28 1008.73 1008.99 1009.64 1010.21 1010.97 1011.70 1012.45 1013.53 1013.94 1013.97 1014.10 1014.34 1014.73 1015.02 1015.28 1015.47 1015.48 1015.46 1015.62 1015.79 1016.02 1016.22 1016.42 1016.61 1016.76 1016.91 1016.95 1017.02 1017.23 1017.46 1017.58 1017.64 1017.75 1017.89 1017.97
1011.29 1012.49 1010.66 1008.99 1006.11 1004.04 1003.41 1003.46 1003.98 1004.81 1005.91 1007.07 1007.82 1008.64 1009.40 1009.44 1009.62 1010.56 1011.01 1011.79 1012.28 1012.99 1013.75 1014.03 1014.37 1014.73 1015.00 1015.12 1015.28 1015.51 1015.76 1015.93 1015.99 1016.00 1016.12 1016.31 1016.52 1016.69 1016.91 1017.00 1017.07 1017.11 1017.17 1017.26 1017.46 1017.57 1017.67 1017.85 1018.00
1010.11 1011.25 1010.18 1008.04 1006.70 1004.15 1003.77 1003.55 1004.25 1004.81 1005.45 1006.39 1007.52 1008.64 1009.60 1009.70 1009.66 1010.20 1010.92 1011.63 1012.44 1013.03 1013.49 1014.06 1014.53 1014.91 1015.13 1015.24 1015.34 1015.57 1015.83 1015.98 1016.21 1016.33 1016.39 1016.52 1016.64 1016.77 1016.88 1016.96 1016.91 1017.07 1017.27 1017.22 1017.34 1017.58 1017.73 1017.90 1017.99
1008.20 1009.16 1008.93 1007.49 1006.42 1004.55 1003.91 1004.18 1004.42 1004.75 1005.01 1006.09 1006.26 1008.28 1009.27 1009.58 1009.72 1010.27 1010.90 1011.65 1012.43 1013.08 1013.33 1013.97 1014.34 1014.75 1015.15 1015.46 1015.66 1016.00 1016.12 1016.04 1016.14 1016.17 1016.35 1016.54 1016.67 1016.64 1016.70 1016.93 1017.13 1017.18 1017.26 1017.31 1017.35 1017.40 1017.58 1017.81 1017.88
1006.89 1008.03 1007.91 1006.72 1006.33 1004.54 1003.91 1004.46 1004.66 1004.81 1005.49 1005.99 1006.29 1007.26 1008.70 1009.42 1009.82 1010.49 1011.07 1011.85 1012.30 1012.89 1013.16 1013.67 1013.93 1014.23 1014.72 1015.07 1015.31 1015.45 1015.60 1016.00 1016.03 1016.10 1016.16 1016.33 1016.47 1016.56 1016.46 1016.50 1016.90 1017.07 1017.17 1017.32 1017.53 1017.61 1017.79 1017.90 1017.95
1005.66 1007.10 1006.61 1005.32 1006.08 1005.45 1005.16 1006.61 1007.05 1005.58 1006.34 1007.08 1007.49 1008.23 1008.81 1009.55 1010.08 1010.52 1011.16 1011.78 1012.26 1012.72 1013.23 1013.59 1013.73 1013.70 1014.16 1014.46 1015.04 1015.16 1015.32 1015.52 1015.80 1015.86 1016.03 1016.26 1016.32 1016.51 1016.55 1016.70 1016.55 1016.79 1017.10 1017.42 1017.61 1017.73 1017.89 1017.98 1018.07
1004.97 1005.58 1004.82 1004.78 1004.95 1004.99 1005.63 1007.09 1008.40 1007.35 1006.70 1007.05 1007.70 1008.36 1008.90 1009.71 1010.30 1010.59 1010.86 1011.21 1011.94 1012.40 1013.08 1013.46 1013.69 1013.70 1014.05 1014.35 1014.80 1014.98 1015.33 1015.21 1015.51 1015.75 1015.97 1016.03 1016.21 1016.52 1016.48 1016.67 1016.67 1016.79 1016.97 1017.47 1017.62 1017.91 1018.04 1017.96 1018.08
1005.02 1004.07 1003.70 1003.13 1003.86 1004.89 1006.69 1008.58 1007.82 1007.55 1006.20 1006.43 1007.41 1008.08 1008.76 1009.59 1010.16 1010.38 1010.66 1010.91 1011.37 1012.18 1012.72 1013.22 1013.34 1013.95 1014.08 1014.49 1014.55 1014.44 1014.90 1015.38 1015.76 1015.78 1015.74 1016.14 1016.09 1016.27 1016.46 1016.63 1016.80 1017.13 1017.07 1017.58 1017.93 1018.31 1018.45 1018.25 1017.81
1004.63 1003.39 1002.73 1002.45 1002.86 1004.73 1005.31 1006.48 1008.74 1007.78 1006.76 1007.09 1007.50 1007.99 1008.62 1009.23 1009.74 1009.85 1010.09 1010.60 1011.08 1011.92 1012.51 1013.00 1013.30 1013.77 1014.17 1014.21 1014.40 1014.40 1015.13 1014.96 1015.69 1015.51 1015.28 1015.57 1015.88 1016.11 1016.61 1016.86 1017.11 1016.95 1016.98 1017.85 1017.94 1018.71 1018.80 1019.06 1018.36
1002.85 1002.77 1001.47 1001.57 1002.25 1004.02 1005.18 1006.52 1005.58 1006.44 1007.13 1007.79 1008.11 1008.58 1008.67 1009.10 1009.66 1009.92 1010.12 1010.39 1010.88 1011.51 1012.12 1012.77 1013.06 1013.29 1013.47 1014.50 1014.68 1014.67 1014.77 1014.96 1015.23 1015.25 1015.40 1015.62 1015.75 1015.98 1016.41 1016.83 1017.26 1017.19 1017.38 1018.13 1017.61 1017.70 1018.22 1018.39 1018.44
1002.32 1002.23 1001.72 1001.63 1002.21 1004.66 1004.34 1006.31 1005.54 1005.24 1006.32 1007.48 1008.24 1008.37 1008.68 1008.90 1009.47 1009.82 1010.01 1010.34 1010.52 1011.18 1011.64 1012.24 1012.83 1012.96 1013.16 1013.88 1014.14 1014.40 1014.41 1014.45 1015.02 1015.41 1015.74 1015.74 1015.50 1015.86 1016.07 1016.53 1017.08 1017.41 1017.17 1017.59 1017.58 1017.71 1018.26 1018.30 1017.79
1002.71 1002.53 1002.81 1002.41 1002.24 1003.72 1004.14 1005.90 1005.69 1005.97 1006.34 1006.77 1007.81 1007.76 1008.24 1008.60 1009.16 1009.41 1009.64 1010.01 1010.44 1010.97 1011.53 1012.03 1012.47 1012.87 1013.22 1013.67 1014.05 1014.20 1014.09 1014.34 1014.99 1015.48 1015.79 1015.82 1015.69 1015.66 1016.07 1016.62 1016.92 1017.13 1017.25 1017.28 1016.91 1017.34 1017.19 1017.78 1017.79
1003.49 1004.04 1004.08 1003.47 1002.73 1003.00 1003.66 1005.36 1005.11 1005.93 1006.01 1006.35 1007.26 1007.98 1007.99 1008.26 1008.70 1009.09 1009.42 1009.85 1010.33 1010.67 1011.35 1011.98 1012.39 1012.82 1013.17 1013.49 1013.79 1014.18 1014.31 1014.54 1015.03 1015.41 1015.66 1015.64 1015.39 1015.33 1015.89 1016.40 1016.71 1016.80 1017.37 1017.30 1017.34 1016.96 1017.14 1017.29 1017.09
1004.66 1004.90 1004.76 1004.08 1003.22 1003.36 1003.63 1003.93 1005.16 1004.86 1005.56 1005.40 1006.68 1008.18 1008.01 1008.47 1008.61 1008.61 1008.86 1009.43 1010.09 1010.41 1011.13 1011.77 1012.33 1012.84 1013.26 1013.66 1014.03 1014.41 1014.91 1015.02 1015.24 1015.22 1015.14 1015.06 1015.17 1015.12 1015.74 1016.02 1016.29 1016.32 1016.69 1017.20 1017.15 1016.96 1017.14 1017.38 1016.89
1004.06 1004.19 1004.84 1004.63 1002.58 1003.78 1003.41 1003.38 1003.64 1004.56 1005.41 1006.13 1008.61 1008.41 1008.28 1008.59 1007.94 1008.06 1008.34 1008.95 1009.74 1010.21 1010.97 1011.62 1012.28 1012.79 1013.21 1013.66 1014.13 1014.44 1014.78 1015.01 1015.00 1015.09 1014.90 1014.76 1015.11 1015.26 1015.45 1015.73 1015.96 1016.07 1016.26 1015.85 1015.97 1015.81 1016.59 1016.69 1016.65
1003.81 1004.22 1004.85 1004.30 1003.46 1004.11 1003.21 1003.13 1002.67 1004.50 1006.34 1008.05 1007.98 1007.07 1006.17 1007.30 1007.61 1007.75 1008.18 1008.77 1009.34 1009.95 1010.54 1011.39 1012.19 1013.07 1013.21 1013.45 1013.76 1013.98 1014.30 1014.55 1014.68 1014.50 1014.51 1014.50 1014.68 1014.94 1015.35 1015.41 1015.56 1015.62 1015.47 1015.55 1015.86 1015.92 1016.17 1016.34 1016.06
1002.77 1003.51 1003.64 1003.30 1003.54 1003.53 1003.47 1003.40 1004.14 1005.08 1003.59 1004.77 1005.99 1005.18 1005.38 1006.14 1006.90 1007.15 1007.70 1008.30 1008.89 1009.52 1010.34 1011.22 1011.97 1012.48 1012.89 1013.38 1013.70 1014.05 1014.23 1014.40 1014.69 1014.64 1014.49 1014.27 1014.06 1014.16 1014.58 1014.73 1014.92 1015.28 1015.51 1015.74 1015.90 1015.89 1016.01 1016.25 1016.11
1001.94 1001.91 1002.14 1002.54 1003.91 1003.74 1002.92 1004.59 1004.75 1004.64 1004.51 1004.82 1005.28 1005.46 1004.71 1005.26 1006.12 1006.96 1007.77 1008.36 1008.68 1009.14 1009.97 1010.78 1011.58 1012.28 1012.77 1013.20 1013.79 1014.11 1014.31 1014.48 1014.39 1014.45 1014.44 1014.27 1013.90 1013.87 1014.12 1014.47 1014.80 1015.28 1015.53 1015.72 1015.80 1015.76 1015.79 1015.89 1016.14
1001.40 1001.43 1002.05 1002.28 1002.98 1003.07 1003.39 1004.56 1005.30 1004.67 1004.43 1003.61 1003.52 1003.84 1004.63 1004.46 1005.63 1006.79 1007.31 1007.88 1008.36 1009.12 1009.72 1010.64 1011.47 1012.01 1012.69 1013.19 1013.53 1014.02 1014.24 1014.38 1014.17 1014.35 1014.58 1014.59 1014.32 1014.24 1014.36 1014.62 1014.82 1015.05 1015.17 1015.46 1015.53 1015.61 1015.65 1015.69 1015.61
1001.30 1001.84 1002.38 1002.92 1003.94 1004.73 1004.79 1005.14 1005.09 1004.41 1003.50 1003.06 1003.15 1002.82 1003.02 1004.47 1005.72 1006.53 1007.00 1007.47 1007.96 1009.04 1010.09 1010.79 1011.53 1012.23 1012.82 1013.12 1013.58 1013.73 1014.03 1014.20 1014.52 1014.57 1014.73 1014.72 1014.82 1014.97 1014.78 1014.81 1014.90 1014.93 1015.27 1015.39 1015.49 1015.54 1015.51 1015.28 1015.34
1001.37 1002.42 1003.67 1004.93 1005.51 1005.78 1004.98 1004.71 1004.14 1002.91 1002.72 1002.33 1002.61 1002.24 1003.22 1004.58 1006.07 1007.25 1007.37 1007.67 1008.03 1009.23 1010.38 1010.99 1011.74 1012.40 1013.08 1013.35 1013.52 1013.70 1013.77 1013.85 1014.18 1014.67 1014.90 1015.02 1015.29 1015.58 1015.46 1015.39 1015.27 1015.25 1015.34 1015.45 1015.34 1015.44 1015.53 1015.37 1015.31
1001.71 1002.68 1004.02 1005.33 1006.28 1005.96 1005.35 1004.99 1003.71 1002.89 1002.99 1002.51 1002.11 1002.30 1003.51 1005.92 1007.36 1009.16 1008.88 1007.84 1008.43 1009.43 1010.48 1011.02 1012.03 1012.59 1013.27 1013.45 1013.50 1013.61 1014.07 1014.33 1014.56 1014.58 1015.14 1015.58 1015.73 1015.60 1015.50 1015.52 1015.30 1015.51 1015.48 1015.49 1015.34 1015.59 1015.53 1015.32 1015.14
1001.53 1002.14 1002.85 1004.85 1005.51 1006.52 1005.83 1005.37 1004.88 1004.05 1004.82 1003.81 1002.95 1002.87 1003.78 1005.43 1006.16 1006.76 1008.26 1008.14 1008.75 1009.47 1010.43 1010.95 1011.85 1012.42 1013.26 1013.46 1013.62 1014.29 1014.73 1014.81 1015.22 1015.68 1015.51 1015.84 1015.85 1015.66 1015.47 1015.55 1015.67 1015.69 1015.63 1015.48 1015.69 1015.64 1015.50 1015.39 1015.41
1000.98 1001.83 1003.09 1004.65 1006.24 1007.02 1006.62 1006.48 1005.97 1006.05 1005.96 1004.88 1005.35 1004.04 1004.02 1004.73 1005.85 1006.65 1007.05 1007.85 1008.56 1008.83 1009.67 1010.24 1011.48 1012.46 1013.27 1013.79 1014.12 1014.53 1014.83 1015.39 1015.31 1015.73 1015.96 1016.05 1016.17 1015.86 1015.70 1015.64 1015.72 1015.77 1015.80 1015.79 1015.78 1015.91 1015.81 1015.78 1015.85
1000.99 1001.64 1002.88 1004.26 1005.61 1006.76 1007.36 1007.01 1005.91 1006.43 1006.32 1005.82 1007.33 1006.76 1004.22 1004.74 1005.55 1006.10 1006.58 1007.26 1007.99 1008.69 1009.86 1011.16 1012.29 1012.94 1013.42 1014.02 1014.33 1014.58 1014.98 1015.13 1015.82 1015.81 1016.05 1016.15 1016.23 1016.08 1015.82 1015.77 1015.91 1016.16 1016.22 1016.08 1016.12 1016.23 1016.22 1016.26 1016.16
1000.38 1001.29 1002.32 1004.31 1005.54 1006.49 1006.95 1006.15 1006.07 1008.79 1008.67 1008.46 1007.22 1008.89 1004.80 1004.34 1005.04 1005.45 1006.20 1006.53 1008.00 1009.79 1010.44 1011.15 1012.25 1012.87 1013.77 1014.40 1014.70 1014.90 1015.12 1015.13 1015.54 1015.81 1016.11 1016.25 1016.24 1016.22 1016.12 1016.10 1016.29 1016.46 1016.60 1016.49 1016.57 1016.81 1016.77 1016.78 1016.56
Wind_Speed
14 11 5 5 3 2 8 10 7 15 10 9 12 7 7 5 2 6 10 19 20 14 10 12 14 14 14 13 13 14 13 13 12 12 10 11 11 11 11 11 9 9 9 8 9 9 10 11 10
11 11 4 4 3 8 4 12 12 19 16 16 14 14 9 8 12 20 13 20 19 14 10 10 14 14 14 13 13 13 13 12 11 11 11 9 10 10 10 10 8 8 8 8 7 8 8 9 9
3 11 3 4 3 6 9 12 14 19 21 16 7 14 7 16 16 8 21 21 19 16 12 11 14 14 14 13 13 13 13 12 10 10 11 11 10 9 9 9 7 6 8 7 7 7 7 7 7
4 3 4 2 5 8 16 14 17 20 19 15 17 13 15 15 16 11 21 20 17 15 12 14 15 15 13 13 13 12 12 11 9 8 9 9 9 9 9 7 7 8 7 6 6 6 8 7 7
10 5 3 5 5 12 11 17 17 14 19 19 19 18 17 15 21 21 21 20 19 13 9 11 15 14 13 12 11 11 11 12 11 10 7 5 6 6 7 9 7 6 7 6 5 6 6 7 7
7 1 4 4 4 13 11 14 14 16 21 20 20 18 10 10 8 18 19 18 16 17 12 11 14 13 13 13 13 11 10 9 9 9 7 5 4 3 5 7 7 6 6 8 7 6 7 7 7
9 5 5 10 12 12 16 17 11 10 16 14 20 14 8 8 7 19 18 18 16 15 13 10 8 10 12 12 11 11 10 9 7 6 5 5 5 4 4 5 6 6 6 4 7 6 6 7 7
7 3 4 1 6 6 17 13 10 8 9 22 22 8 14 11 10 13 15 18 16 14 13 11 9 8 7 6 9 7 7 8 7 7 8 6 6 6 6 5 5 5 6 5 6 8 8 8 8
8 3 3 3 9 2 13 12 12 13 17 14 8 18 18 16 11 14 13 14 11 11 13 11 10 10 8 7 8 10 12 10 10 8 8 7 4 5 7 6 7 6 6 7 5 5 6 9 9
6 5 5 4 8 4 10 21 12 15 14 18 19 16 18 15 9 11 12 12 9 11 10 9 8 9 8 9 7 6 7 5 5 6 6 4 5 5 6 9 7 9 8 7 5 3 5 7 3
3 6 9 15 11 14 24 26 19 4 11 13 17 14 14 13 8 9 8 8 17 13 9 9 8 6 6 4 4 3 3 3 4 6 6 5 3 1 1 1 2 2 4 1 1 1 2 4 4
6 17 19 8 12 7 27 9 11 13 11 19 16 16 13 9 9 9 10 10 9 12 11 9 8 7 6 4 3 4 3 2 2 3 5 2 3 3 3 3 3 3 1 3 4 3 4 6 4
11 25 23 19 15 18 22 27 5 10 7 15 16 15 14 11 9 8 8 11 8 11 9 11 7 7 6 4 3 4 4 3 4 4 3 2 3 4 4 4 2 3 2 5 5 4 4 8 9
17 19 7 9 10 19 21 7 15 5 6 5 13 9 11 11 10 7 7 8 8 10 10 13 10 8 9 8 5 1 1 1 3 3 3 5 4 3 3 4 3 1 4 5 6 5 9 9 10
17 10 8 3 7 8 20 3 14 12 12 2 4 10 9 10 10 8 8 8 9 8 10 9 8 7 7 5 4 4 4 3 5 4 4 7 4 3 4 1 1 2 3 6 6 6 7 6 11
15 6 2 6 3 12 11 8 14 9 11 7 5 12 11 9 11 9 9 8 9 8 11 8 7 8 6 5 4 3 4 2 4 4 3 1 4 5 4 3 3 2 1 2 1 4 2 5 10
8 5 12 12 19 14 5 5 18 10 9 10 8 12 12 11 9 8 9 8 9 9 11 8 8 7 6 5 4 5 3 2 3 4 4 5 5 5 4 3 3 4 4 4 4 2 3 6 5
3 6 13 19 16 17 11 10 10 18 18 14 11 10 11 10 11 12 11 10 9 10 9 9 7 7 7 5 4 3 3 2 3 2 2 2 4 3 3 2 4 4 3 4 4 4 4 5 5
8 10 12 8 17 6 15 14 15 16 13 11 14 8 4 8 12 14 13 13 12 12 11 10 9 6 4 2 2 2 2 1 2 2 5 2 3 3 3 3 4 4 5 3 5 3 4 4 6
7 8 10 14 23 4 15 17 11 16 10 9 17 16 18 12 13 13 10 13 14 13 12 11 8 7 5 3 2 3 3 2 2 2 4 5 6 6 5 5 4 2 2 3 1 5 2 4 3
6 15 10 19 8 20 7 8 8 2 15 22 27 22 10 16 17 17 14 13 13 13 13 11 9 7 6 5 4 3 3 2 1 2 2 4 5 5 5 4 2 3 2 3 1 2 2 2 2
5 7 10 11 16 10 6 5 4 7 4 14 16 9 13 17 17 15 14 10 12 12 12 11 10 9 6 7 4 4 3 3 3 2 2 1 1 2 4 5 5 5 3 4 2 2 2 2 4
5 9 8 6 11 2 6 5 3 4 5 7 4 8 20 21 20 18 16 13 9 13 12 13 10 7 6 6 4 5 3 2 2 2 3 1 2 4 5 6 6 6 4 5 5 5 4 1 2
8 8 7 5 2 4 6 3 5 6 10 5 10 13 21 21 19 17 14 11 8 12 13 11 9 5 7 6 2 5 3 3 4 0 1 2 2 4 6 6 5 5 6 4 3 3 4 4 4
5 2 4 4 5 6 6 7 8 3 5 7 9 11 16 19 17 9 8 10 10 13 13 9 7 7 6 5 3 3 3 4 5 4 4 5 5 3 4 3 4 5 5 5 4 5 4 3 2
9 9 7 7 3 4 8 3 3 2 5 6 6 9 13 23 26 19 26 10 13 13 13 11 8 8 5 4 4 2 5 4 6 7 4 4 3 3 3 3 5 5 5 4 4 2 1 2 4
10 4 11 2 3 3 5 7 3 17 15 8 3 7 11 27 27 22 18 12 13 9 13 14 7 8 6 6 5 8 6 9 8 7 5 3 2 2 5 4 5 5 4 5 4 3 5 5 4
9 6 2 3 3 5 2 1 5 4 3 11 19 5 9 11 21 17 15 14 10 13 14 14 11 8 8 9 7 6 5 6 7 4 3 4 2 3 4 5 5 5 6 5 5 6 6 6 5
2 5 2 4 4 6 4 7 8 11 8 15 9 19 9 10 12 12 14 14 13 11 13 10 9 11 10 8 6 8 7 9 1 6 5 5 2 2 3 4 5 5 5 6 6 5 7 8 7
8 6 7 7 9 2 5 8 9 8 12 5 11 25 8 10 8 9 10 14 13 12 11 10 9 12 10 7 5 6 4 5 2 6 6 4 2 4 6 6 6 6 5 6 6 6 6 6 7
Wind_Direction
161 161 192 233 276 206 77 68 35 77 62 70 70 105 124 104 123 156 128 128 124 123 127 120 120 125 133 134 133 136 138 135 136 132 130 121 115 114 113 99 97 95 104 110 114 116 110 116 121
161 166 214 279 220 74 48 87 67 103 111 98 90 95 85 88 111 122 121 129 122 135 123 122 119 119 126 135 135 140 141 141 140 138 138 130 124 123 124 118 106 104 105 114 120 123 121 124 129
172 216 276 226 282 91 79 64 86 90 94 89 102 78 67 115 126 107 132 131 136 129 121 128 119 116 120 126 132 138 139 140 141 140 142 144 141 139 136 133 143 129 111 116 128 134 133 136 141
236 19 251 319 118 94 102 93 72 89 80 105 107 72 80 92 101 119 131 130 112 116 128 128 125 123 124 123 129 137 137 138 142 150 153 154 154 149 142 146 149 155 138 119 135 147 143 148 152
47 302 327 285 288 110 115 115 112 104 105 102 93 98 96 102 107 107 114 118 116 117 131 129 130 131 129 125 122 129 141 143 150 162 168 173 171 160 143 147 147 144 148 153 148 156 156 160 168
105 173 341 308 240 107 103 99 104 115 110 110 97 104 109 126 124 128 123 120 130 135 137 135 132 132 133 135 135 139 142 145 155 164 172 174 189 176 148 140 139 146 145 163 161 170 173 167 182
129 149 252 264 359 78 99 91 84 93 126 118 134 121 147 142 152 123 131 131 127 133 134 136 131 139 143 145 145 148 149 152 161 173 181 176 176 192 195 165 161 154 153 158 165 186 185 189 183
134 150 246 123 278 7 96 96 115 120 87 131 140 145 155 152 130 128 131 129 134 143 143 144 145 145 145 149 152 150 162 167 174 187 193 198 201 213 225 201 191 178 154 184 185 192 191 189 194
149 76 265 174 219 191 109 112 101 87 77 73 102 133 142 146 148 131 132 126 139 150 149 152 156 157 160 163 171 171 176 187 189 194 198 199 203 226 232 210 227 196 193 188 196 195 203 191 211
96 130 255 112 355 309 86 50 3 115 99 90 95 116 135 142 147 135 150 148 146 148 147 153 163 163 158 165 165 182 191 183 200 191 192 190 228 225 214 241 223 203 205 200 190 229 212 215 207
121 217 214 236 221 233 92 100 298 259 127 137 136 136 141 150 147 154 159 163 158 163 155 159 160 154 155 131 153 174 216 202 201 193 197 187 205 90 47 307 182 199 206 289 210 17 273 228 219
320 270 257 249 207 124 68 92 235 244 151 138 140 146 146 162 156 177 168 165 144 158 149 155 165 139 167 163 174 225 187 201 95 101 114 49 171 160 85 112 100 116 122 96 27 348 297 271 268
217 250 254 243 162 101 90 74 321 345 43 127 143 149 154 165 167 184 157 159 153 139 153 155 163 153 166 151 172 228 180 190 190 155 170 210 233 158 149 104 204 181 115 74 73 8 324 301 286
213 242 287 165 148 117 111 163 168 215 82 98 146 160 166 162 168 174 146 150 142 141 144 161 165 170 148 156 180 231 302 298 183 159 227 161 219 152 133 141 210 259 101 109 96 282 297 290 273
312 238 309 293 137 107 123 86 161 208 109 160 236 176 176 166 166 172 165 154 154 155 150 152 147 150 153 135 123 158 213 239 121 116 166 204 142 161 124 134 202 191 134 132 148 203 255 256 278
296 68 7 303 324 173 78 233 230 216 143 183 342 191 168 162 159 164 152 156 140 144 139 146 146 149 143 119 108 97 331 26 110 143 186 256 179 173 147 156 249 206 92 92 161 229 244 265 268
0 58 10 334 325 309 149 198 229 178 188 172 190 262 164 157 155 150 147 150 148 145 144 142 137 140 139 121 99 80 53 36 113 158 182 182 207 196 156 160 238 205 132 190 205 279 293 263 261
99 74 354 310 288 307 293 237 192 190 204 199 174 236 147 162 164 159 157 152 151 146 135 132 134 140 129 122 107 97 83 86 23 321 222 211 228 207 152 173 241 218 187 183 220 193 192 238 263
155 105 230 265 261 314 269 265 182 184 189 203 47 109 149 218 170 167 165 158 159 150 139 147 144 150 134 127 130 138 152 145 151 249 278 230 189 214 197 213 239 234 228 242 183 157 197 263 243
171 137 225 240 256 252 276 278 195 157 181 160 160 184 189 189 179 173 162 161 165 156 154 150 145 147 157 156 181 122 151 183 187 215 245 246 217 192 190 213 234 264 307 335 345 188 222 232 197
243 159 186 243 233 285 268 299 85 22 137 168 175 198 177 183 186 172 169 163 163 160 154 149 149 154 165 137 109 84 52 75 71 226 244 232 223 189 185 198 220 343 19 11 25 23 35 247 272
254 256 217 240 153 209 162 251 65 153 240 170 195 225 186 187 176 167 165 163 160 161 136 139 146 164 171 153 131 136 167 161 211 163 147 350 63 13 30 93 83 75 75 49 4 339 235 185 237
257 288 294 311 314 262 309 87 241 125 254 240 265 225 210 181 159 164 166 166 158 153 137 141 145 169 145 159 172 164 184 214 147 115 116 186 297 20 67 71 60 51 47 30 25 5 352 245 216
258 270 311 334 0 5 294 199 229 185 210 256 228 253 161 152 157 162 160 155 145 135 133 132 144 139 141 149 149 161 194 112 99 87 274 266 133 61 58 57 62 63 37 19 8 2 0 16 352
274 23 336 353 331 213 298 16 251 229 224 186 177 132 136 146 147 98 150 157 124 128 135 128 127 127 136 144 171 170 262 144 146 90 34 29 84 77 71 76 67 59 48 11 4 35 24 14 4
239 168 161 208 200 264 344 270 204 66 111 79 119 152 133 109 98 106 260 138 127 127 136 119 128 119 118 168 167 197 22 39 34 52 29 65 91 113 93 78 94 77 48 36 25 357 3 352 20
270 181 221 192 285 97 232 333 161 31 13 350 176 118 128 137 153 181 199 132 130 139 129 129 136 133 157 194 83 61 58 77 59 22 48 65 54 79 53 87 96 94 72 52 14 357 17 25 14
182 214 318 337 256 286 46 294 219 51 354 38 3 80 97 125 149 152 144 139 140 150 140 135 139 134 111 94 93 97 62 87 106 107 344 103 79 59 71 90 92 79 64 41 34 30 24 45 20
265 269 268 140 139 177 181 247 196 195 121 90 264 291 109 113 129 142 144 146 146 124 119 123 118 115 102 100 106 101 121 107 168 180 143 103 85 111 98 89 92 85 73 61 44 44 41 43 25
191 214 183 129 281 130 165 270 146 71 43 125 226 280 117 128 144 138 137 125 122 111 129 115 117 114 113 116 123 123 127 137 174 108 116 112 100 52 62 68 78 86 93 83 74 56 51 48 37